星链-2024 (STARLINK-2024 )

导读 | 豆包AI

STARLINK-2024是美国太空探索技术公司(SpaceX)星链计划中的一颗低轨通信卫星,于北京时间2021年2月4日发射升空,目前仍在近地轨道正常运行。它属于Starlink V1.0平台,运行在约410公里高度的近地轨道,轨道倾角53.045°,主要为全球提供高速卫星互联网接入服务,重点填补偏远地区的网络覆盖空白,助力构建全球无缝互联的低轨卫星通信网络,是星链星座组网的重要组成部分。

Basic Information
目录编号:
47606
目录名称:
STARLINK-2024
国际标识:
2021-009BL
轨道中心:
EARTH
卫星名称:
星链-2024
卫星全名:
星链-2024 (STARLINK-2024 )
卫星状态:
已陨落 最后检测时间 2026-02-24
发射日期:
2021-02-04 UTC
国别 :
美国 (US)
星等 :
--
Orbit Information
数据来源 国际轨道数据
星历时间: 2026-02-24T10:38:09+0800
轨道信息已过期18天
半长轴: 6518.953km
偏心率: 0.0003558
轨道倾角: 53.019°
近地点辐角 235.548°
升交点赤经 355.320°
平近点角 124.523°
近地点: 138.496km
远地点: 143.136km
周期: 87.302分钟
每日圈数: 16.494383
Detailed Information
固有亮度:
5
最大亮度:
2.5
卫星平台:
Starlink V1.0
覆盖范围:
全球
运营商:
太空探索技术公司
运营商所在国:
美国
制造商(研发单位):
太空探索技术公司
制造商所在国:
美国
使用方式:
暂无
Satellite Introduction
星链(Starlink)计划是由太空探索技术公司(SpaceX)提出的一个巨型低轨卫星互联网星座项目,计划在2019年至2024年间在太空搭建由约1.2万颗卫星组成的“星链”网络,其中1584颗将部署在地球上空550千米处的近地轨道,并从2020年开始工作。该卫星仍在工作。